Location: Unspecified
(0.0000°N, 0.0000°E)
Time: 03:28:18
(UTC+00:00)

OTV 5 (USA 277) - Pass Details

Date: 17 January 2018
Orbit: 404 x 417 km, 43.0° (Epoch: 07 September)

Event Time Altitude Azimuth Distance (km) Brightness Sun altitude
Exits shadow 05:09:52 - 357° (N) 1,806 ? -14.0°
Reaches altitude 10° 05:11:19 10° 15° (NNE) 1,443 ? -13.7°
Maximum altitude 05:12:54 13° 45° (NE) 1,281 ? -13.3°
Drops below altitude 10° 05:14:29 10° 74° (ENE) 1,446 ? -13.0°
Sets 05:17:28 0° 104° (ESE) 2,309 ? -12.3°
